DW7918 Weather Reports


Display with metric or nautical units.
time (UTC)temp
F
wind
direction
speed
MPH
gust
MPH
rain 1hr
in
rain 24hr
in
rain mn
in
humidity
%
barometer
mb
20260507210803 57 360 6.0 11.0 0.00 0.00 0.00 29 1011.3
20260507210603 57 1 6.0 11.0 0.00 0.00 0.00 30 1011.4
20260507210403 56 1 7.0 11.0 0.00 0.00 0.00 29 1011.5
20260507210203 57 7 7.0 11.0 0.00 0.00 0.00 32 1011.5
20260507210024 57 9 7.0 11.0 0.00 0.00 0.00 32 1011.5
20260507205803 57 2 6.0 11.0 0.00 0.00 0.00 30 1011.5
20260507205624 57 358 6.0 11.0 0.00 0.00 0.00 31 1011.5
20260507205403 58 350 7.0 18.0 0.00 0.00 0.00 33 1011.5
20260507205203 57 345 7.0 18.0 0.00 0.00 0.00 33 1011.5
20260507205003 57 346 7.0 18.0 0.00 0.00 0.00 31 1011.5
20260507204803 57 359 7.0 18.0 0.00 0.00 0.00 28 1011.6
20260507204603 57 13 6.0 18.0 0.00 0.00 0.00 29 1011.6
20260507204424 57 22 6.0 18.0 0.00 0.00 0.00 33 1011.5
20260507204203 57 27 6.0 13.0 0.00 0.00 0.00 30 1011.6
20260507204003 57 24 6.0 11.0 0.00 0.00 0.00 31 1011.5
20260507203803 57 15 6.0 11.0 0.00 0.00 0.00 34 1011.7
20260507203624 57 16 6.0 13.0 0.00 0.00 0.00 33 1011.8
20260507203424 57 14 7.0 13.0 0.00 0.00 0.00 33 1011.8
20260507203203 57 34 7.0 13.0 0.00 0.00 0.00 33 1011.8
20260507203024 57 34 7.0 13.0 0.00 0.00 0.00 31 1011.9
20260507202824 57 29 7.0 13.0 0.00 0.00 0.00 33 1011.9
20260507202603 57 23 7.0 12.0 0.00 0.00 0.00 33 1011.8
20260507202403 57 16 7.0 12.0 0.00 0.00 0.00 33 1011.8
20260507202203 57 4 7.0 12.0 0.00 0.00 0.00 32 1011.8
20260507202003 56 358 7.0 14.0 0.00 0.00 0.00 31 1011.8
20260507201803 56 360 7.0 14.0 0.00 0.00 0.00 35 1011.9
20260507201603 56 3 7.0 14.0 0.00 0.00 0.00 35 1011.9
20260507201424 56 8 7.0 15.0 0.00 0.00 0.00 34 1011.8
20260507201203 57 10 7.0 15.0 0.00 0.00 0.00 29 1011.9
20260507201003 57 14 7.0 15.0 0.00 0.00 0.00 35 1012.0
20260507200803 57 18 6.0 15.0 0.00 0.00 0.00 35 1012.0
20260507200603 57 10 7.0 15.0 0.00 0.00 0.00 33 1012.1
20260507200403 57 3 6.0 14.0 0.00 0.00 0.00 31 1012.0
20260507200203 57 350 6.0 13.0 0.00 0.00 0.00 34 1012.0
20260507200003 57 340 6.0 13.0 0.00 0.00 0.00 36 1012.0
20260507195803 56 341 7.0 13.0 0.00 0.00 0.00 30 1012.1
20260507195603 56 348 7.0 13.0 0.00 0.00 0.00 35 1012.1
20260507195403 56 346 7.0 14.0 0.00 0.00 0.00 33 1012.2
20260507195203 56 354 8.0 14.0 0.00 0.00 0.00 31 1012.2
20260507195003 56 5 8.0 14.0 0.00 0.00 0.00 32 1012.3
20260507194824 56 4 8.0 15.0 0.00 0.00 0.00 34 1012.4
20260507194624 56 4 8.0 15.0 0.00 0.00 0.00 32 1012.4
20260507194403 56 8 8.0 15.0 0.00 0.00 0.00 30 1012.3
20260507194203 56 11 7.0 15.0 0.00 0.00 0.00 34 1012.4
20260507194003 56 7 7.0 15.0 0.00 0.00 0.00 32 1012.4
20260507193804 56 15 6.0 16.0 0.00 0.00 0.00 33 1012.3
20260507193603 56 15 6.0 16.0 0.00 0.00 0.00 38 1012.4
20260507193403 56 7 6.0 16.0 0.00 0.00 0.00 34 1012.4
20260507193203 56 351 7.0 16.0 0.00 0.00 0.00 34 1012.4
20260507193003 56 339 7.0 16.0 0.00 0.00 0.00 34 1012.4
20260507192803 56 331 7.0 14.0 0.00 0.00 0.00 33 1012.5
20260507192603 56 335 7.0 14.0 0.00 0.00 0.00 32 1012.6
20260507192403 56 346 7.0 14.0 0.00 0.00 0.00 31 1012.6
20260507192224 56 356 7.0 14.0 0.00 0.00 0.00 31 1012.6
20260507192003 55 7 7.0 14.0 0.00 0.00 0.00 32 1012.6
20260507191824 56 5 7.0 15.0 0.00 0.00 0.00 33 1012.7
20260507191603 55 358 7.0 15.0 0.00 0.00 0.00 36 1012.7
20260507191403 55 353 7.0 15.0 0.00 0.00 0.00 36 1012.7
20260507191203 55 345 7.0 15.0 0.00 0.00 0.00 31 1012.7
20260507191003 55 336 7.0 15.0 0.00 0.00 0.00 32 1012.7
20260507190803 55 334 7.0 12.0 0.00 0.00 0.00 35 1012.7
20260507190603 55 333 7.0 12.0 0.00 0.00 0.00 34 1012.7
20260507190403 55 336 7.0 12.0 0.00 0.00 0.00 34 1012.7
20260507190203 55 345 7.0 12.0 0.00 0.00 0.00 34 1012.8
20260507190004 55 357 7.0 13.0 0.00 0.00 0.00 33 1012.9
20260507185803 55 2 8.0 13.0 0.00 0.00 0.00 34 1012.9
20260507185603 55 2 8.0 13.0 0.00 0.00 0.00 35 1013.0
20260507185403 55 358 7.0 13.0 0.00 0.00 0.00 37 1013.0
20260507185203 55 357 7.0 13.0 0.00 0.00 0.00 33 1013.0
20260507185003 55 356 6.0 12.0 0.00 0.00 0.00 35 1012.9
20260507184824 55 351 6.0 17.0 0.00 0.00 0.00 36 1013.0
20260507184603 55 353 6.0 17.0 0.00 0.00 0.00 35 1013.0
20260507184403 55 358 6.0 17.0 0.00 0.00 0.00 38 1013.0
20260507184203 54 358 7.0 17.0 0.00 0.00 0.00 36 1013.0
20260507184003 54 356 7.0 17.0 0.00 0.00 0.00 33 1013.1
20260507183803 54 1 6.0 11.0 0.00 0.00 0.00 34 1013.1
20260507183624 54 3 7.0 12.0 0.00 0.00 0.00 37 1013.2
20260507183403 54 18 7.0 14.0 0.00 0.00 0.00 38 1013.2
20260507183224 54 16 6.0 14.0 0.00 0.00 0.00 35 1013.2
20260507183003 54 34 7.0 14.0 0.00 0.00 0.00 36 1013.1
20260507182803 54 33 7.0 14.0 0.00 0.00 0.00 33 1013.1
20260507182603 54 29 7.0 14.0 0.00 0.00 0.00 35 1013.1
20260507182403 54 10 7.0 13.0 0.00 0.00 0.00 36 1013.2
20260507182203 54 13 6.0 13.0 0.00 0.00 0.00 35 1013.1
20260507182003 54 359 6.0 12.0 0.00 0.00 0.00 35 1013.1
20260507181803 55 357 5.0 11.0 0.00 0.00 0.00 38 1013.1
20260507181603 54 356 5.0 11.0 0.00 0.00 0.00 35 1013.2
20260507181403 54 6 5.0 10.0 0.00 0.00 0.00 38 1013.1
20260507181203 54 4 5.0 10.0 0.00 0.00 0.00 35 1013.1
20260507181003 54 12 5.0 10.0 0.00 0.00 0.00 37 1013.1
20260507180803 54 11 5.0 10.0 0.00 0.00 0.00 35 1013.1
20260507180603 54 3 5.0 10.0 0.00 0.00 0.00 35 1013.1
20260507180403 54 17 5.0 10.0 0.00 0.00 0.00 37 1013.1
20260507180203 54 36 4.0 9.0 0.00 0.00 0.00 36 1013.1
20260507180003 53 25 4.0 12.0 0.00 0.00 0.00 35 1013.1
20260507175803 53 28 4.0 12.0 0.00 0.00 0.00 33 1013.1
20260507175624 53 48 4.0 12.0 0.00 0.00 0.00 37 1013.2
20260507175403 53 60 5.0 13.0 0.00 0.00 0.00 38 1013.2
20260507175224 53 67 5.0 13.0 0.00 0.00 0.00 41 1013.2
20260507175003 52 76 6.0 13.0 0.00 0.00 0.00 35 1013.3
20260507174803 53 81 6.0 13.0 0.00 0.00 0.00 35 1013.4
20260507174624 53 82 6.0 13.0 0.00 0.00 0.00 38 1013.4
20260507174403 52 83 6.0 10.0 0.00 0.00 0.00 37 1013.3
20260507174203 52 82 6.0 12.0 0.00 0.00 0.00 38 1013.3
20260507174003 52 84 7.0 13.0 0.00 0.00 0.00 36 1013.4
20260507173803 52 78 7.0 13.0 0.00 0.00 0.00 35 1013.5
20260507173603 52 73 6.0 13.0 0.00 0.00 0.00 36 1013.5
20260507173403 52 77 6.0 13.0 0.00 0.00 0.00 37 1013.5
20260507173203 52 68 6.0 13.0 0.00 0.00 0.00 36 1013.5
20260507173003 52 62 6.0 13.0 0.00 0.00 0.00 37 1013.5
20260507172803 52 63 6.0 13.0 0.00 0.00 0.00 37 1013.7
20260507172603 52 68 6.0 14.0 0.00 0.00 0.00 34 1013.8
20260507172403 52 62 7.0 20.0 0.00 0.00 0.00 36 1013.8
20260507172203 52 71 7.0 20.0 0.00 0.00 0.00 38 1013.8
20260507172003 52 77 7.0 20.0 0.00 0.00 0.00 37 1013.8
20260507171803 52 78 7.0 20.0 0.00 0.00 0.00 38 1013.8
20260507171603 52 82 7.0 20.0 0.00 0.00 0.00 37 1013.9
20260507171403 52 85 7.0 14.0 0.00 0.00 0.00 36 1013.8
20260507171203 52 85 6.0 14.0 0.00 0.00 0.00 38 1013.9
20260507171003 52 85 6.0 13.0 0.00 0.00 0.00 37 1014.0
20260507170824 51 89 6.0 13.0 0.00 0.00 0.00 38 1014.0
20260507170603 52 71 7.0 14.0 0.00 0.00 0.00 36 1014.0
20260507170403 52 53 8.0 14.0 0.00 0.00 0.00 35 1014.0
20260507170224 52 40 8.0 14.0 0.00 0.00 0.00 35 1014.0
20260507170003 52 36 8.0 14.0 0.00 0.00 0.00 36 1014.0
20260507165803 52 39 8.0 16.0 0.00 0.00 0.00 39 1014.1
20260507165603 52 53 7.0 16.0 0.00 0.00 0.00 39 1014.0
20260507165403 52 72 7.0 16.0 0.00 0.00 0.00 40 1014.0
20260507165203 51 79 8.0 16.0 0.00 0.00 0.00 38 1014.0
20260507165024 51 85 8.0 17.0 0.00 0.00 0.00 36 1014.1
20260507164803 51 84 9.0 17.0 0.00 0.00 0.00 35 1014.1
20260507164603 51 76 9.0 17.0 0.00 0.00 0.00 35 1014.2
20260507164403 51 58 8.0 17.0 0.00 0.00 0.00 36 1014.2
20260507164203 52 47 7.0 17.0 0.00 0.00 0.00 34 1014.3
20260507164003 52 26 7.0 14.0 0.00 0.00 0.00 38 1014.3
20260507163803 51 18 7.0 13.0 0.00 0.00 0.00 43 1014.1
20260507163624 51 20 7.0 13.0 0.00 0.00 0.00 39 1014.2
20260507163403 51 37 7.0 13.0 0.00 0.00 0.00 36 1014.3
20260507163203 52 45 7.0 12.0 0.00 0.00 0.00 38 1014.4
20260507163003 52 43 8.0 15.0 0.00 0.00 0.00 38 1014.5
20260507162803 52 37 7.0 15.0 0.00 0.00 0.00 37 1014.4
20260507162603 52 35 7.0 15.0 0.00 0.00 0.00 38 1014.4
20260507162403 52 26 6.0 15.0 0.00 0.00 0.00 41 1014.5
20260507162203 51 26 6.0 15.0 0.00 0.00 0.00 40 1014.5
20260507162003 51 28 6.0 12.0 0.00 0.00 0.00 43 1014.5
20260507161803 50 23 6.0 15.0 0.00 0.00 0.00 41 1014.5
20260507161624 50 18 6.0 15.0 0.00 0.00 0.00 40 1014.5
20260507161403 50 14 6.0 15.0 0.00 0.00 0.00 41 1014.5
20260507161224 50 9 6.0 15.0 0.00 0.00 0.00 43 1014.6
20260507161003 50 8 5.0 15.0 0.00 0.00 0.00 40 1014.6
20260507160803 50 20 5.0 11.0 0.00 0.00 0.00 42 1014.6
20260507160624 50 21 5.0 11.0 0.00 0.00 0.00 41 1014.6
20260507160403 50 27 5.0 11.0 0.00 0.00 0.00 43 1014.5
20260507160203 50 36 5.0 11.0 0.00 0.00 0.00 41 1014.4
20260507160003 50 33 5.0 11.0 0.00 0.00 0.00 40 1014.5
20260507155824 50 26 5.0 11.0 0.00 0.00 0.00 40 1014.4
20260507155603 50 41 6.0 11.0 0.00 0.00 0.00 42 1014.5
20260507155403 50 58 6.0 13.0 0.00 0.00 0.00 42 1014.5
20260507155203 50 60 6.0 13.0 0.00 0.00 0.00 43 1014.3
20260507155003 50 64 6.0 13.0 0.00 0.00 0.00 42 1014.3
20260507154803 50 58 7.0 13.0 0.00 0.00 0.00 40 1014.3
20260507154603 50 51 7.0 13.0 0.00 0.00 0.00 40 1014.3
20260507154403 50 42 6.0 12.0 0.00 0.00 0.00 43 1014.3
20260507154203 50 38 6.0 12.0 0.00 0.00 0.00 42 1014.3
20260507154003 50 36 5.0 11.0 0.00 0.00 0.00 42 1014.5
20260507153803 50 55 5.0 12.0 0.00 0.00 0.00 42 1014.4
20260507153603 50 61 5.0 13.0 0.00 0.00 0.00 42 1014.3
20260507153403 50 61 5.0 13.0 0.00 0.00 0.00 44 1014.3
20260507153203 50 58 5.0 13.0 0.00 0.00 0.00 43 1014.3
20260507153003 50 56 6.0 13.0 0.00 0.00 0.00 39 1014.3
20260507152824 50 53 6.0 13.0 0.00 0.00 0.00 41 1014.4
20260507152603 50 49 6.0 11.0 0.00 0.00 0.00 42 1014.4
20260507152403 50 34 6.0 15.0 0.00 0.00 0.00 41 1014.4
20260507152203 50 31 6.0 15.0 0.00 0.00 0.00 43 1014.4
20260507152003 50 27 6.0 15.0 0.00 0.00 0.00 44 1014.4
20260507151803 49 18 6.0 15.0 0.00 0.00 0.00 43 1014.4
20260507151624 49 11 7.0 15.0 0.00 0.00 0.00 42 1014.4
20260507151403 49 20 6.0 14.0 0.00 0.00 0.00 43 1014.3
20260507151203 49 14 6.0 14.0 0.00 0.00 0.00 40 1014.4
20260507151003 49 6 6.0 12.0 0.00 0.00 0.00 41 1014.3
20260507150824 49 7 6.0 13.0 0.00 0.00 0.00 43 1014.3
20260507150603 48 359 6.0 15.0 0.00 0.00 0.00 43 1014.3
20260507150403 48 354 6.0 15.0 0.00 0.00 0.00 42 1014.3
20260507150224 48 349 6.0 15.0 0.00 0.00 0.00 43 1014.3
20260507150004 48 349 5.0 15.0 0.00 0.00 0.00 44 1014.3
20260507145803 48 359 5.0 11.0 0.00 0.00 0.00 39 1014.2
20260507145603 48 17 5.0 11.0 0.00 0.00 0.00 46 1014.2
20260507145403 48 24 4.0 11.0 0.00 0.00 0.00 44 1014.3
20260507145203 48 24 5.0 11.0 0.00 0.00 0.00 42 1014.3
20260507145003 48 19 5.0 10.0 0.00 0.00 0.00 44 1014.3
20260507144803 48 27 5.0 10.0 0.00 0.00 0.00 43 1014.3
20260507144603 48 28 5.0 10.0 0.00 0.00 0.00 43 1014.3
20260507144403 48 42 6.0 12.0 0.00 0.00 0.00 41 1014.3
20260507144203 48 51 6.0 12.0 0.00 0.00 0.00 44 1014.3
20260507144003 48 50 6.0 12.0 0.00 0.00 0.00 46 1014.2
20260507143803 48 38 6.0 13.0 0.00 0.00 0.00 44 1014.3
20260507143603 48 31 6.0 13.0 0.00 0.00 0.00 45 1014.2
20260507143424 47 16 6.0 13.0 0.00 0.00 0.00 45 1014.2
20260507143224 47 10 7.0 13.0 0.00 0.00 0.00 45 1014.3
20260507143003 47 8 6.0 13.0 0.00 0.00 0.00 45 1014.3
20260507142803 47 6 6.0 12.0 0.00 0.00 0.00 44 1014.3
20260507142603 47 6 6.0 12.0 0.00 0.00 0.00 44 1014.3
20260507142403 47 7 6.0 12.0 0.00 0.00 0.00 46 1014.4
20260507142203 47 9 6.0 12.0 0.00 0.00 0.00 45 1014.3
20260507142003 47 21 6.0 11.0 0.00 0.00 0.00 44 1014.5
20260507141803 47 21 6.0 11.0 0.00 0.00 0.00 49 1014.4
20260507141603 47 18 7.0 12.0 0.00 0.00 0.00 47 1014.5
20260507141403 47 18 7.0 12.0 0.00 0.00 0.00 45 1014.5
20260507141203 46 13 7.0 12.0 0.00 0.00 0.00 45 1014.4
20260507141003 46 3 7.0 12.0 0.00 0.00 0.00 46 1014.4
20260507140824 46 4 7.0 12.0 0.00 0.00 0.00 45 1014.5
20260507140603 46 12 7.0 13.0 0.00 0.00 0.00 44 1014.4
20260507140424 46 15 7.0 13.0 0.00 0.00 0.00 43 1014.5
20260507140203 46 19 6.0 13.0 0.00 0.00 0.00 42 1014.5
20260507140003 46 19 7.0 13.0 0.00 0.00 0.00 45 1014.6
20260507135804 46 20 7.0 13.0 0.00 0.00 0.00 46 1014.5
20260507135603 46 16 7.0 10.0 0.00 0.00 0.00 46 1014.6
20260507135403 46 17 7.0 10.0 0.00 0.00 0.00 46 1014.5
20260507135224 46 19 7.0 10.0 0.00 0.00 0.00 46 1014.6
20260507135003 46 23 6.0 10.0 0.00 0.00 0.00 46 1014.6
20260507134803 46 22 6.0 10.0 0.00 0.00 0.00 45 1014.5
20260507134603 46 17 5.0 10.0 0.00 0.00 0.00 47 1014.5
20260507134403 46 14 5.0 10.0 0.00 0.00 0.00 48 1014.5
20260507134203 46 5 5.0 10.0 0.00 0.00 0.00 48 1014.5
20260507134024 46 3 5.0 10.0 0.00 0.00 0.00 49 1014.4
20260507133803 45 356 6.0 11.0 0.00 0.00 0.00 46 1014.4
20260507133603 46 358 6.0 11.0 0.00 0.00 0.00 47 1014.4
20260507133424 46 355 5.0 11.0 0.00 0.00 0.00 45 1014.5
20260507133224 45 357 5.0 11.0 0.00 0.00 0.00 50 1014.5
20260507133003 45 5 5.0 11.0 0.00 0.00 0.00 47 1014.4
20260507132803 45 22 4.0 11.0 0.00 0.00 0.00 47 1014.4
20260507132603 45 26 4.0 8.0 0.00 0.00 0.00 50 1014.5
20260507132424 45 24 4.0 8.0 0.00 0.00 0.00 51 1014.3
20260507132224 45 28 4.0 6.0 0.00 0.00 0.00 51 1014.3
20260507132003 45 23 4.0 7.0 0.00 0.00 0.00 52 1014.3
20260507131824 45 14 5.0 12.0 0.00 0.00 0.00 52 1014.3
20260507131603 45 11 5.0 12.0 0.00 0.00 0.00 50 1014.3
20260507131403 45 13 5.0 12.0 0.00 0.00 0.00 53 1014.2
20260507131203 45 10 5.0 12.0 0.00 0.00 0.00 53 1014.3
20260507131003 44 7 5.0 12.0 0.00 0.00 0.00 51 1014.3
20260507130803 44 5 5.0 8.0 0.00 0.00 0.00 53 1014.3
20260507130603 44 5 5.0 8.0 0.00 0.00 0.00 53 1014.3
20260507130424 44 3 5.0 8.0 0.00 0.00 0.00 53 1014.2
20260507130203 44 4 5.0 8.0 0.00 0.00 0.00 53 1014.2
20260507130003 44 2 4.0 8.0 0.00 0.00 0.00 54 1014.2
20260507125803 44 3 5.0 10.0 0.00 0.00 0.00 54 1014.2
20260507125603 44 3 5.0 10.0 0.00 0.00 0.00 54 1014.2
20260507125403 44 3 5.0 10.0 0.00 0.00 0.00 56 1014.2
20260507125224 44 2 5.0 10.0 0.00 0.00 0.00 55 1014.2
20260507125003 44 6 4.0 10.0 0.00 0.00 0.00 54 1014.2
20260507124803 44 5 4.0 10.0 0.00 0.00 0.00 55 1014.2
20260507124603 44 9 4.0 8.0 0.00 0.00 0.00 55 1014.1
20260507124424 43 11 4.0 8.0 0.00 0.00 0.00 55 1014.1
20260507124203 43 13 4.0 8.0 0.00 0.00 0.00 56 1014.1
20260507124003 43 14 4.0 8.0 0.00 0.00 0.00 54 1014.2
20260507123824 43 14 3.0 8.0 0.00 0.00 0.00 56 1014.2
20260507123603 43 11 4.0 7.0 0.00 0.00 0.00 57 1014.1
20260507123403 43 18 4.0 7.0 0.00 0.00 0.00 56 1014.2
20260507123203 43 22 3.0 6.0 0.00 0.00 0.00 57 1014.2
20260507123003 43 23 3.0 6.0 0.00 0.00 0.00 57 1014.1
20260507122803 43 21 4.0 7.0 0.00 0.00 0.00 58 1014.2
20260507122603 42 23 4.0 9.0 0.00 0.00 0.00 57 1014.2
20260507122403 42 14 3.0 9.0 0.00 0.00 0.00 57 1014.2
20260507122203 42 11 3.0 9.0 0.00 0.00 0.00 56 1014.2
20260507122024 42 9 3.0 9.0 0.00 0.00 0.00 56 1014.2
20260507121803 42 12 3.0 9.0 0.00 0.00 0.00 57 1014.2
20260507121604 42 7 2.0 7.0 0.00 0.00 0.00 57 1014.2
20260507121403 42 8 2.0 7.0 0.00 0.00 0.00 57 1014.3
20260507121203 42 6 2.0 7.0 0.00 0.00 0.00 57 1014.2
20260507121003 42 8 2.0 5.0 0.00 0.00 0.00 59 1014.2
20260507120803 42 7 2.0 5.0 0.00 0.00 0.00 58 1014.2
20260507120603 42 360 2.0 5.0 0.00 0.00 0.00 58 1014.3
20260507120403 42 352 2.0 5.0 0.00 0.00 0.00 59 1014.2
20260507120203 41 339 2.0 5.0 0.00 0.00 0.00 58 1014.2
20260507120004 41 332 2.0 5.0 0.00 0.00 0.00 58 1014.2
20260507115803 41 326 2.0 5.0 0.00 0.00 0.00 58 1014.2
20260507115603 41 331 2.0 5.0 0.00 0.00 0.00 59 1014.2
20260507115403 41 336 2.0 5.0 0.00 0.00 0.00 59 1014.3
20260507115203 41 343 2.0 5.0 0.00 0.00 0.00 59 1014.2
20260507115003 40 346 2.0 5.0 0.00 0.00 0.00 59 1014.2
20260507114803 40 349 2.0 5.0 0.00 0.00 0.00 59 1014.2
20260507114603 40 342 2.0 4.0 0.00 0.00 0.00 59 1014.2
20260507114403 40 333 2.0 5.0 0.00 0.00 0.00 59 1014.1
20260507114203 40 330 2.0 5.0 0.00 0.00 0.00 60 1014.1
20260507114024 40 325 2.0 5.0 0.00 0.00 0.00 60 1014.0
20260507113803 40 324 1.0 5.0 0.00 0.00 0.00 59 1014.0
20260507113603 40 332 1.0 5.0 0.00 0.00 0.00 60 1014.0
20260507113424 40 348 0.0 4.0 0.00 0.00 0.00 60 1014.0
20260507113203 39 339 1.0 3.0 0.00 0.00 0.00 61 1014.0
20260507113004 39 339 1.0 3.0 0.00 0.00 0.00 61 1013.9
20260507112803 39 335 0.0 3.0 0.00 0.00 0.00 61 1013.8
20260507112603 39 332 0.0 3.0 0.00 0.00 0.00 61 1013.8
20260507112403 39 327 0.0 3.0 0.00 0.00 0.00 62 1013.7
20260507112203 38 0 0.0 0.0 0.00 0.00 0.00 63 1013.7
20260507112003 38 0 0.0 0.0 0.00 0.00 0.00 63 1013.7
20260507111803 38 0 0.0 0.0 0.00 0.00 0.00 64 1013.7
20260507111603 38 0 0.0 0.0 0.00 0.00 0.00 64 1013.7
20260507111424 37 25 0.0 1.0 0.00 0.00 0.00 64 1013.7
20260507111203 37 25 0.0 1.0 0.00 0.00 0.00 64 1013.6
20260507111003 37 25 0.0 1.0 0.00 0.00 0.00 65 1013.6
20260507110803 36 25 0.0 1.0 0.00 0.00 0.00 65 1013.5
20260507110603 36 25 0.0 1.0 0.00 0.00 0.00 65 1013.5
20260507110403 36 0 0.0 0.0 0.00 0.00 0.00 65 1013.5
20260507110224 36 0 0.0 0.0 0.00 0.00 0.00 65 1013.4
20260507110003 36 0 0.0 0.0 0.00 0.00 0.00 65 1013.4
20260507105803 36 0 0.0 0.0 0.00 0.00 0.00 65 1013.4
20260507105603 36 0 0.0 0.0 0.00 0.00 0.00 65 1013.4
20260507105403 36 0 0.0 0.0 0.00 0.00 0.00 65 1013.4
20260507105203 36 0 0.0 0.0 0.00 0.00 0.00 65 1013.3
20260507105024 36 0 0.0 0.0 0.00 0.00 0.00 65 1013.3
20260507104803 36 0 0.0 0.0 0.00 0.00 0.00 65 1013.3
20260507104603 36 0 0.0 0.0 0.00 0.00 0.00 65 1013.3
20260507104403 36 0 0.0 0.0 0.00 0.00 0.00 65 1013.2
20260507104224 36 25 0.0 1.0 0.00 0.00 0.00 65 1013.3
20260507104003 36 25 0.0 1.0 0.00 0.00 0.00 65 1013.3
20260507103824 36 25 0.0 1.0 0.00 0.00 0.00 65 1013.3
20260507103603 36 25 0.0 1.0 0.00 0.00 0.00 65 1013.4
20260507103403 36 25 0.0 1.0 0.00 0.00 0.00 65 1013.4
20260507103203 36 0 0.0 0.0 0.00 0.00 0.00 65 1013.5
20260507103003 36 0 0.0 0.0 0.00 0.00 0.00 65 1013.4
20260507102824 36 0 0.0 0.0 0.00 0.00 0.00 65 1013.3
20260507102603 36 32 0.0 1.0 0.00 0.00 0.00 65 1013.3
20260507102403 36 32 0.0 2.0 0.00 0.00 0.00 65 1013.3
20260507102224 36 24 0.0 3.0 0.00 0.00 0.00 64 1013.3
20260507102003 36 27 0.0 3.0 0.00 0.00 0.00 64 1013.3
20260507101824 36 27 0.0 3.0 0.00 0.00 0.00 64 1013.4
20260507101603 36 27 0.0 3.0 0.00 0.00 0.00 65 1013.4
20260507101403 36 26 0.0 3.0 0.00 0.00 0.00 65 1013.4
20260507101203 36 30 0.0 3.0 0.00 0.00 0.00 65 1013.3
20260507101003 36 24 1.0 3.0 0.00 0.00 0.00 65 1013.3
20260507100803 36 23 1.0 3.0 0.00 0.00 0.00 65 1013.4
20260507100624 36 21 1.0 3.0 0.00 0.00 0.00 65 1013.3
20260507100424 37 22 1.0 3.0 0.00 0.00 0.00 65 1013.3
20260507100203 37 21 1.0 3.0 0.00 0.00 0.00 65 1013.3
20260507100003 37 20 1.0 3.0 0.00 0.00 0.00 65 1013.3
20260507095803 37 19 1.0 3.0 0.00 0.00 0.00 65 1013.3
20260507095603 37 19 1.0 3.0 0.00 0.00 0.00 65 1013.3
20260507095403 37 18 1.0 3.0 0.00 0.00 0.00 65 1013.2
20260507095203 37 17 2.0 3.0 0.00 0.00 0.00 65 1013.3
20260507095003 37 17 1.0 3.0 0.00 0.00 0.00 65 1013.3
20260507094803 37 18 1.0 3.0 0.00 0.00 0.00 64 1013.3
20260507094603 37 18 1.0 3.0 0.00 0.00 0.00 64 1013.3
20260507094403 37 18 1.0 3.0 0.00 0.00 0.00 64 1013.3
20260507094203 37 18 1.0 3.0 0.00 0.00 0.00 64 1013.3
20260507094024 38 16 1.0 3.0 0.00 0.00 0.00 63 1013.3
20260507093803 38 13 2.0 4.0 0.00 0.00 0.00 63 1013.4
20260507093603 38 14 2.0 4.0 0.00 0.00 0.00 64 1013.4
20260507093403 38 13 2.0 4.0 0.00 0.00 0.00 64 1013.4
20260507093203 38 11 2.0 4.0 0.00 0.00 0.00 64 1013.4
20260507093003 38 10 2.0 4.0 0.00 0.00 0.00 64 1013.4
20260507092803 38 8 2.0 4.0 0.00 0.00 0.00 64 1013.4
20260507092603 38 5 2.0 4.0 0.00 0.00 0.00 64 1013.4
20260507092403 38 6 2.0 4.0 0.00 0.00 0.00 64 1013.4
20260507092203 38 10 2.0 4.0 0.00 0.00 0.00 64 1013.4
20260507092003 38 16 2.0 4.0 0.00 0.00 0.00 64 1013.4
20260507091803 38 22 2.0 4.0 0.00 0.00 0.00 64 1013.4
20260507091603 38 28 2.0 4.0 0.00 0.00 0.00 64 1013.3
20260507091403 38 33 1.0 4.0 0.00 0.00 0.00 64 1013.3
20260507091224 38 32 1.0 4.0 0.00 0.00 0.00 64 1013.3
20260507091003 38 20 1.0 4.0 0.00 0.00 0.00 64 1013.2
20260507090803 38 13 1.0 3.0 0.00 0.00 0.00 63 1013.2
20260507090624 38 18 1.0 3.0 0.00 0.00 0.00 63 1013.2
20260507090403 38 21 1.0 3.0 0.00 0.00 0.00 63 1013.2
20260507090203 38 24 1.0 3.0 0.00 0.00 0.00 63 1013.3
20260507090004 38 29 1.0 3.0 0.00 0.00 0.00 63 1013.3
20260507085824 39 32 1.0 3.0 0.00 0.00 0.00 63 1013.3
20260507085624 39 31 1.0 3.0 0.00 0.00 0.00 63 1013.4
20260507085424 39 30 1.0 3.0 0.00 0.00 0.00 62 1013.3
20260507085203 39 27 2.0 3.0 0.00 0.00 0.00 62 1013.3
20260507085003 39 26 2.0 3.0 0.00 0.00 0.00 62 1013.3
20260507084803 39 23 2.0 3.0 0.00 0.00 0.00 62 1013.3
20260507084603 39 26 2.0 4.0 0.00 0.00 0.00 62 1013.4
20260507084403 40 28 2.0 4.0 0.00 0.00 0.00 62 1013.4
20260507084203 40 29 2.0 5.0 0.00 0.00 0.00 62 1013.4
20260507084003 40 33 2.0 5.0 0.00 0.00 0.00 62 1013.4
20260507083803 40 33 2.0 5.0 0.00 0.00 0.00 62 1013.4
20260507083603 40 26 2.0 5.0 0.00 0.00 0.00 62 1013.3
20260507083403 40 23 2.0 5.0 0.00 0.00 0.00 62 1013.3
20260507083203 40 25 2.0 5.0 0.00 0.00 0.00 62 1013.3
20260507083004 40 22 2.0 5.0 0.00 0.00 0.00 62 1013.4
20260507082824 40 20 2.0 5.0 0.00 0.00 0.00 63 1013.4
20260507082603 40 27 2.0 4.0 0.00 0.00 0.00 62 1013.4
20260507082404 40 31 2.0 6.0 0.00 0.00 0.00 62 1013.4
20260507082203 40 34 2.0 6.0 0.00 0.00 0.00 62 1013.4
20260507082003 40 43 2.0 6.0 0.00 0.00 0.00 62 1013.4
20260507081803 40 49 2.0 6.0 0.00 0.00 0.00 62 1013.3
20260507081603 40 50 2.0 6.0 0.00 0.00 0.00 62 1013.3
20260507081403 40 52 2.0 5.0 0.00 0.00 0.00 62 1013.3
20260507081224 40 42 2.0 5.0 0.00 0.00 0.00 62 1013.3
20260507081024 40 33 2.0 5.0 0.00 0.00 0.00 63 1013.3
20260507080803 40 22 2.0 4.0 0.00 0.00 0.00 63 1013.3
20260507080624 40 18 2.0 4.0 0.00 0.00 0.00 62 1013.3
20260507080403 40 12 2.0 4.0 0.00 0.00 0.00 62 1013.3
20260507080203 40 12 2.0 4.0 0.00 0.00 0.00 63 1013.3
20260507080003 40 8 2.0 4.0 0.00 0.00 0.00 62 1013.3
20260507075824 40 7 2.0 4.0 0.00 0.00 0.00 62 1013.2
20260507075624 40 5 2.0 5.0 0.00 0.00 0.00 62 1013.2
20260507075424 40 7 2.0 5.0 0.00 0.00 0.00 62 1013.2
20260507075203 40 11 2.0 5.0 0.00 0.00 0.00 62 1013.2
20260507075024 40 13 3.0 5.0 0.00 0.00 0.00 62 1013.2
20260507074803 40 11 3.0 5.0 0.00 0.00 0.00 62 1013.3
20260507074624 40 11 2.0 5.0 0.00 0.00 0.00 63 1013.2
20260507074424 40 11 2.0 5.0 0.00 0.00 0.00 63 1013.2
20260507074224 40 10 2.0 5.0 0.00 0.00 0.00 63 1013.3
20260507074003 40 7 2.0 5.0 0.00 0.00 0.00 63 1013.2
20260507073803 40 9 2.0 4.0 0.00 0.00 0.00 63 1013.3
20260507073603 40 10 2.0 4.0 0.00 0.00 0.00 63 1013.2
20260507073403 40 9 2.0 4.0 0.00 0.00 0.00 62 1013.2
20260507073203 40 7 2.0 5.0 0.00 0.00 0.00 62 1013.3
20260507073003 41 8 2.0 5.0 0.00 0.00 0.00 62 1013.3
20260507072803 41 8 2.0 5.0 0.00 0.00 0.00 62 1013.3
20260507072603 41 9 2.0 5.0 0.00 0.00 0.00 62 1013.2
20260507072403 41 10 2.0 5.0 0.00 0.00 0.00 62 1013.2
20260507072203 41 13 2.0 4.0 0.00 0.00 0.00 61 1013.2
20260507072003 42 15 2.0 5.0 0.00 0.00 0.00 61 1013.1
20260507071803 42 14 2.0 5.0 0.00 0.00 0.00 61 1013.1
20260507071604 42 14 2.0 5.0 0.00 0.00 0.00 61 1013.0
20260507071403 42 18 2.0 5.0 0.00 0.00 0.00 60 1013.0
20260507071203 42 20 2.0 5.0 0.00 0.00 0.00 60 1013.0
20260507071003 43 18 2.0 4.0 0.00 0.00 0.00 60 1013.0
20260507070803 43 19 2.0 5.0 0.00 0.00 0.00 60 1013.0
20260507070624 43 18 2.0 5.0 0.00 0.00 0.00 59 1013.0
20260507070403 43 14 2.0 5.0 0.00 0.00 0.00 58 1013.0
20260507070203 44 12 2.0 5.0 0.00 0.00 0.00 58 1013.1
20260507070005 44 16 2.0 5.0 0.00 0.00 0.00 57 1013.1
20260507065824 44 18 2.0 5.0 0.00 0.00 0.00 57 1013.2
20260507065603 44 14 2.0 5.0 0.00 0.00 0.00 57 1013.2
20260507065403 44 5 2.0 5.0 0.00 0.00 0.00 56 1013.2
20260507065203 44 355 2.0 4.0 0.00 0.00 0.00 57 1013.2
20260507065003 44 336 1.0 4.0 0.00 0.00 0.00 55 1013.2
20260507064803 44 331 1.0 4.0 0.00 0.00 0.00 55 1013.3
20260507064603 44 333 1.0 4.0 0.00 0.00 0.00 57 1013.3
20260507064424 44 343 1.0 4.0 0.00 0.00 0.00 56 1013.3
20260507064203 44 350 1.0 3.0 0.00 0.00 0.00 57 1013.3
20260507064003 44 355 1.0 3.0 0.00 0.00 0.00 57 1013.3
20260507063824 44 358 1.0 3.0 0.00 0.00 0.00 57 1013.3
20260507063603 44 350 1.0 4.0 0.00 0.00 0.00 57 1013.3
20260507063424 44 349 1.0 4.0 0.00 0.00 0.00 58 1013.3
20260507063203 44 346 1.0 4.0 0.00 0.00 0.00 57 1013.2
20260507063003 44 344 1.0 4.0 0.00 0.00 0.00 56 1013.3
20260507062803 44 345 0.0 4.0 0.00 0.00 0.00 56 1013.2
20260507062603 44 9 0.0 4.0 0.00 0.00 0.00 57 1013.2
20260507062403 44 0 0.0 0.0 0.00 0.00 0.00 56 1013.2
20260507062224 44 0 0.0 0.0 0.00 0.00 0.00 56 1013.3
20260507062003 44 0 0.0 0.0 0.00 0.00 0.00 56 1013.4
20260507061803 44 0 0.0 0.0 0.00 0.00 0.00 57 1013.4
20260507061603 44 0 0.0 0.0 0.00 0.00 0.00 57 1013.4
20260507061424 44 0 0.0 0.0 0.00 0.00 0.00 58 1013.4
20260507061224 44 0 0.0 0.0 0.00 0.00 0.00 59 1013.4
20260507061024 44 0 0.0 0.0 0.00 0.00 0.00 59 1013.4
20260507060803 43 0 0.0 0.0 0.00 0.00 0.00 59 1013.5
20260507060603 43 0 0.0 0.0 0.00 0.00 0.00 59 1013.4
20260507060403 43 0 0.0 0.0 0.00 0.00 0.00 58 1013.5
20260507060203 43 0 0.0 0.0 0.00 0.00 0.00 59 1013.5
20260507060024 43 0 0.0 0.0 0.00 0.00 0.00 59 1013.5
20260507055803 43 0 0.0 0.0 0.00 0.00 0.00 60 1013.5
20260507055603 43 0 0.0 0.0 0.00 0.00 0.00 61 1013.5
20260507055403 43 0 0.0 0.0 0.00 0.00 0.00 61 1013.5
20260507055224 43 0 0.0 0.0 0.00 0.00 0.00 60 1013.5
20260507055003 43 0 0.0 0.0 0.00 0.00 0.00 60 1013.5
20260507054803 43 0 0.0 0.0 0.00 0.00 0.00 60 1013.5
20260507054624 43 0 0.0 0.0 0.00 0.00 0.00 60 1013.5
20260507054403 43 0 0.0 0.0 0.00 0.00 0.00 60 1013.6
20260507054204 43 0 0.0 0.0 0.00 0.00 0.00 59 1013.6
20260507054003 43 0 0.0 0.0 0.00 0.00 0.00 58 1013.6
20260507053824 43 0 0.0 0.0 0.00 0.00 0.00 58 1013.6
20260507053603 43 0 0.0 0.0 0.00 0.00 0.00 58 1013.6
20260507053403 43 0 0.0 0.0 0.00 0.00 0.00 58 1013.6
20260507053224 43 0 0.0 0.0 0.00 0.00 0.00 59 1013.6
20260507053004 43 0 0.0 0.0 0.00 0.00 0.00 61 1013.6
20260507052803 43 0 0.0 0.0 0.00 0.00 0.00 62 1013.5
20260507052603 42 0 0.0 0.0 0.00 0.00 0.00 62 1013.6
20260507052403 42 0 0.0 0.0 0.00 0.00 0.00 63 1013.6
20260507052203 42 0 0.0 0.0 0.00 0.00 0.00 62 1013.5
20260507052003 43 0 0.0 0.0 0.00 0.00 0.00 62 1013.5
20260507051803 43 0 0.0 0.0 0.00 0.00 0.00 61 1013.5
20260507051603 43 0 0.0 0.0 0.00 0.00 0.00 61 1013.5
20260507051403 43 0 0.0 0.0 0.00 0.00 0.00 61 1013.5
20260507051203 43 0 0.0 0.0 0.00 0.00 0.00 61 1013.5
20260507051003 43 0 0.0 0.0 0.00 0.00 0.00 60 1013.4
20260507050803 43 0 0.0 0.0 0.00 0.00 0.00 59 1013.4
20260507050624 43 0 0.0 0.0 0.00 0.00 0.00 60 1013.5
20260507050403 43 0 0.0 0.0 0.00 0.00 0.00 59 1013.4
20260507050203 43 0 0.0 0.0 0.00 0.00 0.00 59 1013.5
20260507050003 43 0 0.0 0.0 0.00 0.00 0.00 59 1013.4
20260507045803 43 0 0.0 0.0 0.00 0.00 0.00 59 1013.4
20260507045603 43 0 0.0 0.0 0.00 0.00 0.00 59 1013.4
20260507045403 43 0 0.0 0.0 0.00 0.00 0.00 58 1013.4
20260507045203 42 0 0.0 0.0 0.00 0.00 0.00 58 1013.4
20260507045024 42 0 0.0 0.0 0.00 0.00 0.00 59 1013.4
20260507044824 42 0 0.0 0.0 0.00 0.00 0.00 60 1013.4
20260507044603 42 0 0.0 0.0 0.00 0.00 0.00 60 1013.5
20260507044424 42 0 0.0 0.0 0.00 0.00 0.00 60 1013.5
20260507044203 42 0 0.0 0.0 0.00 0.00 0.00 60 1013.4
20260507044003 42 0 0.0 0.0 0.00 0.00 0.00 60 1013.5
20260507043803 43 0 0.0 0.0 0.00 0.00 0.00 60 1013.5
20260507043603 43 0 0.0 0.0 0.00 0.00 0.00 60 1013.5
20260507043403 43 0 0.0 0.0 0.00 0.00 0.00 60 1013.5
20260507043203 43 0 0.0 0.0 0.00 0.00 0.00 61 1013.5
20260507043003 43 0 0.0 0.0 0.00 0.00 0.00 60 1013.5
20260507042824 43 0 0.0 0.0 0.00 0.00 0.00 60 1013.5
20260507042603 44 0 0.0 0.0 0.00 0.00 0.00 61 1013.5
20260507042403 44 0 0.0 0.0 0.00 0.00 0.00 61 1013.4
20260507042203 44 0 0.0 0.0 0.00 0.00 0.00 61 1013.4
20260507042024 44 0 0.0 0.0 0.00 0.00 0.00 60 1013.4
20260507041824 44 0 0.0 0.0 0.00 0.00 0.00 61 1013.4
20260507041603 44 0 0.0 0.0 0.00 0.00 0.00 61 1013.5
20260507041424 44 0 0.0 0.0 0.00 0.00 0.00 61 1013.5
20260507041203 44 0 0.0 0.0 0.00 0.00 0.00 61 1013.5
20260507041003 44 0 0.0 0.0 0.00 0.00 0.00 61 1013.5
20260507040803 45 0 0.0 0.0 0.00 0.00 0.00 60 1013.5
20260507040603 45 0 0.0 0.0 0.00 0.00 0.00 60 1013.6
20260507040403 45 0 0.0 0.0 0.00 0.00 0.00 60 1013.6
20260507040203 45 0 0.0 0.0 0.00 0.00 0.00 60 1013.5
20260507040003 45 0 0.0 0.0 0.00 0.00 0.00 61 1013.4
20260507035824 45 0 0.0 0.0 0.00 0.00 0.00 59 1013.5
20260507035603 46 0 0.0 0.0 0.00 0.00 0.00 59 1013.4
20260507035424 46 0 0.0 0.0 0.00 0.00 0.00 59 1013.5
20260507035203 46 0 0.0 0.0 0.00 0.00 0.00 59 1013.5
20260507035003 46 0 0.0 0.0 0.00 0.00 0.00 60 1013.5
20260507034803 46 0 0.0 0.0 0.00 0.00 0.00 60 1013.4
20260507034603 46 0 0.0 0.0 0.00 0.00 0.00 59 1013.4
20260507034404 46 0 0.0 0.0 0.00 0.00 0.00 59 1013.5
20260507034203 46 0 0.0 0.0 0.00 0.00 0.00 58 1013.5
20260507034003 46 0 0.0 0.0 0.00 0.00 0.00 59 1013.5
20260507033803 46 0 0.0 0.0 0.00 0.00 0.00 59 1013.4
20260507033603 46 0 0.0 0.0 0.00 0.00 0.00 60 1013.4
20260507033424 46 0 0.0 0.0 0.00 0.00 0.00 60 1013.4
20260507033203 46 0 0.0 0.0 0.00 0.00 0.00 59 1013.4
20260507033003 46 0 0.0 0.0 0.00 0.00 0.00 60 1013.4
20260507032824 46 0 0.0 0.0 0.00 0.00 0.00 60 1013.4
20260507032603 46 0 0.0 0.0 0.00 0.00 0.00 59 1013.5
20260507032403 46 0 0.0 0.0 0.00 0.00 0.00 59 1013.4
20260507032224 46 0 0.0 0.0 0.00 0.00 0.00 59 1013.5
20260507032003 46 0 0.0 0.0 0.00 0.00 0.00 58 1013.5
20260507031803 46 0 0.0 0.0 0.00 0.00 0.00 59 1013.5
20260507031603 46 0 0.0 0.0 0.00 0.00 0.00 62 1013.5
20260507031403 46 0 0.0 0.0 0.00 0.00 0.00 61 1013.5
20260507031203 46 0 0.0 0.0 0.00 0.00 0.00 60 1013.5
20260507031003 46 0 0.0 0.0 0.00 0.00 0.00 58 1013.5
20260507030803 46 0 0.0 0.0 0.00 0.00 0.00 60 1013.5
20260507030603 46 0 0.0 0.0 0.00 0.00 0.00 61 1013.5
20260507030403 46 0 0.0 0.0 0.00 0.00 0.00 60 1013.5
20260507030224 46 0 0.0 0.0 0.00 0.00 0.00 59 1013.5
20260507030003 46 0 0.0 0.0 0.00 0.00 0.00 59 1013.5
20260507025803 46 0 0.0 0.0 0.00 0.00 0.00 59 1013.5
20260507025603 46 0 0.0 0.0 0.00 0.00 0.00 58 1013.6
20260507025403 46 0 0.0 0.0 0.00 0.00 0.00 57 1013.6
20260507025203 46 0 0.0 0.0 0.00 0.00 0.00 56 1013.5
20260507025003 46 0 0.0 0.0 0.00 0.00 0.00 57 1013.5
20260507024803 47 0 0.0 0.0 0.00 0.00 0.00 57 1013.5
20260507024624 47 0 0.0 0.0 0.00 0.00 0.00 57 1013.5
20260507024403 47 0 0.0 0.0 0.00 0.00 0.00 57 1013.5
20260507024224 47 0 0.0 0.0 0.00 0.00 0.00 57 1013.5
20260507024003 47 0 0.0 0.0 0.00 0.00 0.00 57 1013.5
20260507023803 47 0 0.0 0.0 0.00 0.00 0.00 55 1013.5
20260507023603 47 0 0.0 0.0 0.00 0.00 0.00 55 1013.5
20260507023403 48 0 0.0 0.0 0.00 0.00 0.00 56 1013.5
20260507023224 48 0 0.0 0.0 0.00 0.00 0.00 56 1013.5
20260507023004 48 0 0.0 0.0 0.00 0.00 0.00 57 1013.5
20260507022803 48 0 0.0 0.0 0.00 0.00 0.00 59 1013.4
20260507022603 48 0 0.0 0.0 0.00 0.00 0.00 58 1013.4
20260507022403 48 0 0.0 0.0 0.00 0.00 0.00 53 1013.4
20260507022203 48 0 0.0 0.0 0.00 0.00 0.00 55 1013.4
20260507022024 48 0 0.0 0.0 0.00 0.00 0.00 54 1013.3
20260507021803 48 0 0.0 0.0 0.00 0.00 0.00 55 1013.3
20260507021603 48 0 0.0 0.0 0.00 0.00 0.00 54 1013.3
20260507021404 48 0 0.0 0.0 0.00 0.00 0.00 54 1013.3
20260507021224 48 0 0.0 0.0 0.00 0.00 0.00 54 1013.3
20260507021003 48 0 0.0 0.0 0.00 0.00 0.00 55 1013.3
20260507020803 48 0 0.0 0.0 0.00 0.00 0.00 54 1013.3
20260507020603 48 0 0.0 0.0 0.00 0.00 0.00 55 1013.2
20260507020403 48 0 0.0 0.0 0.00 0.00 0.00 55 1013.2
20260507020203 48 0 0.0 0.0 0.00 0.00 0.00 55 1013.2
20260507020024 48 0 0.0 0.0 0.00 0.00 0.00 55 1013.2
20260507015803 48 0 0.0 0.0 0.00 0.00 0.00 56 1013.1
20260507015603 48 0 0.0 0.0 0.00 0.00 0.00 56 1013.1
20260507015403 48 0 0.0 0.0 0.00 0.00 0.00 57 1013.1
20260507015203 48 0 0.0 0.0 0.00 0.00 0.00 58 1013.1
20260507015004 48 0 0.0 0.0 0.00 0.00 0.00 58 1013.1
20260507014803 48 0 0.0 0.0 0.00 0.00 0.00 60 1013.2
20260507014603 48 0 0.0 0.0 0.00 0.00 0.00 59 1013.1
20260507014424 48 0 0.0 0.0 0.00 0.00 0.00 58 1013.1
20260507014203 48 0 0.0 0.0 0.00 0.00 0.00 57 1013.1
20260507014003 48 0 0.0 0.0 0.00 0.00 0.00 56 1013.1
20260507013803 48 0 0.0 0.0 0.00 0.00 0.00 56 1013.1
20260507013603 48 0 0.0 0.0 0.00 0.00 0.00 55 1013.1
20260507013403 48 0 0.0 0.0 0.00 0.00 0.00 54 1013.1
20260507013224 48 0 0.0 0.0 0.00 0.00 0.00 52 1013.1
20260507013024 48 0 0.0 0.0 0.00 0.00 0.00 52 1013.1
20260507012824 48 0 0.0 0.0 0.00 0.00 0.00 53 1013.0
20260507012603 48 0 0.0 0.0 0.00 0.00 0.00 54 1013.0
20260507012403 49 0 0.0 0.0 0.00 0.00 0.00 49 1013.0
20260507012203 49 0 0.0 0.0 0.00 0.00 0.00 50 1013.1
20260507012003 49 0 0.0 0.0 0.00 0.00 0.00 51 1013.1
20260507011803 49 0 0.0 0.0 0.00 0.00 0.00 53 1013.0
20260507011603 49 0 0.0 0.0 0.00 0.00 0.00 54 1013.0
20260507011424 49 0 0.0 0.0 0.00 0.00 0.00 53 1013.0
20260507011203 49 0 0.0 0.0 0.00 0.00 0.00 48 1013.0
20260507011003 49 0 0.0 0.0 0.00 0.00 0.00 44 1013.0
20260507010803 49 0 0.0 0.0 0.00 0.00 0.00 45 1013.0
20260507010603 49 0 0.0 0.0 0.00 0.00 0.00 47 1012.9
20260507010403 49 0 0.0 0.0 0.00 0.00 0.00 48 1013.0
20260507010203 49 0 0.0 0.0 0.00 0.00 0.00 50 1013.0
20260507010004 49 0 0.0 0.0 0.00 0.00 0.00 49 1013.0
20260507005803 49 13 0.0 1.0 0.00 0.00 0.00 47 1012.9
20260507005603 49 13 0.0 2.0 0.00 0.00 0.00 45 1012.9
20260507005424 49 13 0.0 2.0 0.00 0.00 0.00 45 1012.9
20260507005203 49 13 0.0 2.0 0.00 0.00 0.00 46 1012.8
20260507005024 49 13 1.0 2.0 0.00 0.00 0.00 45 1012.9
20260507004824 49 12 1.0 3.0 0.00 0.00 0.00 45 1012.9
20260507004603 49 12 1.0 3.0 0.00 0.00 0.00 49 1012.9
20260507004403 49 12 1.0 3.0 0.00 0.00 0.00 46 1012.9
20260507004203 49 11 1.0 3.0 0.00 0.00 0.00 45 1013.0
20260507004024 50 9 1.0 3.0 0.00 0.00 0.00 45 1012.9
20260507003803 50 8 1.0 3.0 0.00 0.00 0.00 46 1012.9
20260507003603 50 7 1.0 4.0 0.00 0.00 0.00 45 1012.9
20260507003403 50 8 1.0 4.0 0.00 0.00 0.00 43 1012.8
20260507003224 50 9 1.0 4.0 0.00 0.00 0.00 43 1012.8
20260507003003 50 12 1.0 4.0 0.00 0.00 0.00 41 1012.8
20260507002803 51 16 1.0 4.0 0.00 0.00 0.00 38 1012.8
20260507002603 51 16 2.0 4.0 0.00 0.00 0.00 38 1012.8
20260507002424 51 8 2.0 7.0 0.00 0.00 0.00 38 1012.9
20260507002203 51 10 3.0 7.0 0.00 0.00 0.00 38 1012.9
20260507002003 51 8 4.0 7.0 0.00 0.00 0.00 39 1012.8
20260507001824 51 5 4.0 11.0 0.00 0.00 0.00 38 1012.8
20260507001603 51 3 4.0 11.0 0.00 0.00 0.00 36 1012.8
20260507001403 51 3 4.0 11.0 0.00 0.00 0.00 37 1012.9
20260507001203 51 360 4.0 11.0 0.00 0.00 0.00 37 1013.0
20260507001003 51 360 4.0 11.0 0.00 0.00 0.00 37 1012.9
20260507000803 51 3 3.0 9.0 0.00 0.00 0.00 39 1013.0
20260507000603 51 4 3.0 9.0 0.00 0.00 0.00 37 1012.9
20260507000405 51 6 3.0 6.0 0.00 0.00 0.00 39 1012.8
20260507000205 51 6 3.0 6.0 0.00 0.00 0.00 39 1012.9
20260507000003 52 4 3.0 7.0 0.00 0.00 0.00 37 1012.8
20260506235803 51 2 4.0 10.0 0.00 0.00 0.00 36 1012.8
20260506235603 51 1 4.0 10.0 0.00 0.00 0.00 36 1012.8
20260506235403 51 4 4.0 10.0 0.00 0.00 0.00 37 1012.8
20260506235203 51 5 4.0 10.0 0.00 0.00 0.00 36 1012.8
20260506235003 51 6 4.0 10.0 0.00 0.00 0.00 35 1012.8
20260506234803 51 12 3.0 7.0 0.00 0.00 0.00 39 1012.8
20260506234624 51 14 3.0 7.0 0.00 0.00 0.00 38 1012.8
20260506234403 51 13 3.0 7.0 0.00 0.00 0.00 40 1012.8
20260506234203 51 11 3.0 7.0 0.00 0.00 0.00 41 1012.8
20260506234003 52 14 3.0 7.0 0.00 0.00 0.00 41 1012.8
20260506233803 52 11 4.0 7.0 0.00 0.00 0.00 40 1012.8
20260506233603 52 10 4.0 7.0 0.00 0.00 0.00 40 1012.7
20260506233403 52 15 4.0 7.0 0.00 0.00 0.00 40 1012.7
20260506233203 52 13 3.0 7.0 0.00 0.00 0.00 37 1012.7
20260506233003 52 9 3.0 7.0 0.00 0.00 0.00 39 1012.7
20260506232803 52 9 3.0 7.0 0.00 0.00 0.00 37 1012.7
20260506232603 52 11 3.0 7.0 0.00 0.00 0.00 37 1012.7
20260506232403 52 6 3.0 6.0 0.00 0.00 0.00 39 1012.7
20260506232203 52 3 3.0 10.0 0.00 0.00 0.00 38 1012.7
20260506232003 52 4 3.0 10.0 0.00 0.00 0.00 40 1012.7
20260506231803 52 4 4.0 10.0 0.00 0.00 0.00 40 1012.8
20260506231603 52 5 4.0 10.0 0.00 0.00 0.00 40 1012.8
20260506231403 52 5 4.0 10.0 0.00 0.00 0.00 34 1012.8
20260506231203 52 9 4.0 10.0 0.00 0.00 0.00 37 1012.8
20260506231003 52 6 5.0 11.0 0.00 0.00 0.00 40 1012.8
20260506230803 52 5 5.0 11.0 0.00 0.00 0.00 37 1012.8
20260506230603 52 359 5.0 11.0 0.00 0.00 0.00 38 1012.8
20260506230403 52 358 5.0 11.0 0.00 0.00 0.00 37 1012.8
20260506230003 52 6 5.0 9.0 0.00 0.00 0.00 36 1012.8
20260506225803 52 20 5.0 11.0 0.00 0.00 0.00 33 1012.7
20260506225603 52 33 5.0 11.0 0.00 0.00 0.00 36 1012.9
20260506225403 53 47 5.0 11.0 0.00 0.00 0.00 35 1012.9
20260506225203 53 49 5.0 11.0 0.00 0.00 0.00 35 1012.8
20260506225024 53 48 5.0 11.0 0.00 0.00 0.00 34 1012.8
20260506224803 53 33 4.0 11.0 0.00 0.00 0.00 38 1012.7
20260506224603 53 25 4.0 11.0 0.00 0.00 0.00 33 1012.7
20260506224424 53 7 4.0 7.0 0.00 0.00 0.00 33 1012.7
20260506224203 54 1 4.0 7.0 0.00 0.00 0.00 31 1012.7
20260506224003 54 357 4.0 8.0 0.00 0.00 0.00 36 1012.7
20260506223803 53 358 4.0 8.0 0.00 0.00 0.00 32 1012.7
20260506223603 53 1 5.0 9.0 0.00 0.00 0.00 30 1012.7
20260506223403 53 2 5.0 13.0 0.00 0.00 0.00 31 1012.7
20260506223204 53 6 6.0 13.0 0.00 0.00 0.00 34 1012.8
20260506223024 53 7 6.0 13.0 0.00 0.00 0.00 35 1012.8
20260506222803 54 4 5.0 13.0 0.00 0.00 0.00 35 1012.8
20260506222624 54 3 5.0 13.0 0.00 0.00 0.00 33 1012.8
20260506222403 54 9 5.0 9.0 0.00 0.00 0.00 35 1012.7
20260506222224 54 9 5.0 9.0 0.00 0.00 0.00 33 1012.7
20260506222003 53 19 5.0 9.0 0.00 0.00 0.00 34 1012.7
20260506221803 53 26 5.0 9.0 0.00 0.00 0.00 35 1012.7
20260506221603 53 37 5.0 10.0 0.00 0.00 0.00 31 1012.7
20260506221403 54 50 5.0 10.0 0.00 0.00 0.00 33 1012.7
20260506221203 54 51 5.0 10.0 0.00 0.00 0.00 35 1012.8
20260506221003 53 45 6.0 10.0 0.00 0.00 0.00 36 1012.9
20260506220803 53 34 6.0 14.0 0.00 0.00 0.00 32 1012.9
20260506220624 53 26 6.0 14.0 0.00 0.00 0.00 34 1012.9
20260506220424 54 21 6.0 14.0 0.00 0.00 0.00 33 1012.7
20260506220203 54 22 6.0 14.0 0.00 0.00 0.00 32 1012.8
20260506220003 54 25 5.0 14.0 0.00 0.00 0.00 32 1012.8
20260506215803 54 38 4.0 11.0 0.00 0.00 0.00 34 1012.7
20260506215603 54 35 4.0 10.0 0.00 0.00 0.00 36 1012.7
20260506215403 54 24 4.0 10.0 0.00 0.00 0.00 35 1012.7
20260506215203 53 24 4.0 10.0 0.00 0.00 0.00 35 1012.8
20260506215003 53 38 5.0 13.0 0.00 0.00 0.00 35 1012.9
20260506214803 53 37 5.0 13.0 0.00 0.00 0.00 33 1012.9
20260506214603 53 40 5.0 13.0 0.00 0.00 0.00 36 1012.9
20260506214424 53 42 5.0 13.0 0.00 0.00 0.00 35 1012.9
20260506214203 53 52 5.0 13.0 0.00 0.00 0.00 30 1012.9
20260506214024 53 47 5.0 9.0 0.00 0.00 0.00 31 1012.8
20260506213824 53 44 5.0 8.0 0.00 0.00 0.00 34 1012.9
20260506213624 53 53 5.0 11.0 0.00 0.00 0.00 36 1012.9
20260506213403 53 63 6.0 11.0 0.00 0.00 0.00 34 1012.8
20260506213203 53 64 6.0 13.0 0.00 0.00 0.00 36 1012.9
20260506213003 53 63 6.0 13.0 0.00 0.00 0.00 33 1012.8
20260506212803 53 63 6.0 13.0 0.00 0.00 0.00 32 1012.8
20260506212603 54 58 6.0 13.0 0.00 0.00 0.00 32 1012.9
20260506212403 54 53 6.0 13.0 0.00 0.00 0.00 34 1012.8
20260506212203 54 44 6.0 10.0 0.00 0.00 0.00 31 1012.9
20260506212003 55 41 5.0 9.0 0.00 0.00 0.00 32 1012.9
20260506211803 55 27 5.0 9.0 0.00 0.00 0.00 32 1012.8
20260506211603 55 14 5.0 9.0 0.00 0.00 0.00 32 1012.8
20260506211403 55 7 5.0 9.0 0.00 0.00 0.00 34 1012.8
20260506211203 55 9 5.0 9.0 0.00 0.00 0.00 32 1012.8
20260506211003 54 14 5.0 10.0 0.00 0.00 0.00 35 1012.8